Time,TemperatureF,DewpointF,PressureIn,WindDirection,WindDirectionDegrees,WindSpeedMPH,WindSpeedGustMPH,Humidity,HourlyPrecipIn,Conditions,Clouds,dailyrainin,SolarRadiationWatts/m^2,SoftwareType,DateUTC
2013-07-07 00:01:00,69.4,66.3,29.96,WSW,247,0.0,0.0,90,0.00,CLR,,0.00,0.0,WeatherDisplay:10.37,2013-07-07 05:01:00,
2013-07-07 00:06:00,69.2,66.1,29.96,WSW,246,0.0,0.0,90,0.00,CLR,,0.00,0.0,WeatherDisplay:10.37,2013-07-07 05:06:00,
2013-07-07 00:11:00,69.1,66.0,29.96,WSW,247,0.0,0.0,90,0.00,CLR,,0.00,0.0,WeatherDisplay:10.37,2013-07-07 05:11:00,
2013-07-07 00:16:00,69.0,65.9,29.96,WSW,247,0.0,0.0,90,0.00,CLR,,0.00,0.0,WeatherDisplay:10.37,2013-07-07 05:16:00,
2013-07-07 00:21:00,68.9,65.8,29.96,WSW,246,0.0,0.0,90,0.00,CLR,,0.00,0.0,WeatherDisplay:10.37,2013-07-07 05:21:00,
2013-07-07 00:26:00,68.8,65.7,29.96,WSW,246,0.0,0.0,90,0.00,CLR,,0.00,0.0,WeatherDisplay:10.37,2013-07-07 05:26:00,
2013-07-07 00:31:00,68.8,65.7,29.96,WSW,247,0.0,0.0,90,0.00,CLR,,0.00,0.0,WeatherDisplay:10.37,2013-07-07 05:31:00,
2013-07-07 00:36:00,68.8,65.7,29.96,WSW,247,0.0,0.0,90,0.00,CLR,,0.00,0.0,WeatherDisplay:10.37,2013-07-07 05:36:00,
2013-07-07 00:41:00,68.7,65.6,29.96,WSW,246,0.0,0.0,90,0.00,CLR,,0.00,0.0,WeatherDisplay:10.37,2013-07-07 05:41:00,
2013-07-07 00:46:00,68.7,65.6,29.96,WSW,247,0.0,0.0,90,0.00,CLR,,0.00,0.0,WeatherDisplay:10.37,2013-07-07 05:46:00,
2013-07-07 00:51:00,68.6,65.5,29.95,WSW,247,0.0,0.0,90,0.00,CLR,,0.00,0.0,WeatherDisplay:10.37,2013-07-07 05:51:00,
2013-07-07 00:56:00,68.5,65.4,29.95,WSW,246,0.0,0.0,90,0.00,CLR,,0.00,0.0,WeatherDisplay:10.37,2013-07-07 05:56:00,
2013-07-07 01:01:00,68.5,65.4,29.95,WSW,246,0.0,0.0,90,0.00,CLR,,0.00,0.0,WeatherDisplay:10.37,2013-07-07 06:01:00,
2013-07-07 01:06:00,68.4,65.4,29.95,WSW,247,0.0,0.0,90,0.00,CLR,,0.00,0.0,WeatherDisplay:10.37,2013-07-07 06:06:00,
2013-07-07 01:11:00,68.4,65.4,29.95,WSW,247,0.0,0.0,90,0.00,CLR,,0.00,0.0,WeatherDisplay:10.37,2013-07-07 06:11:00,
2013-07-07 01:16:00,68.4,65.7,29.95,WSW,247,0.0,0.0,91,0.00,CLR,,0.00,0.0,WeatherDisplay:10.37,2013-07-07 06:16:00,
2013-07-07 01:21:00,68.3,65.6,29.95,WSW,246,0.0,0.0,91,0.00,CLR,,0.00,0.0,WeatherDisplay:10.37,2013-07-07 06:21:00,
2013-07-07 01:26:00,68.2,65.5,29.95,WSW,247,0.0,0.0,91,0.00,CLR,,0.00,0.0,WeatherDisplay:10.37,2013-07-07 06:26:00,
2013-07-07 01:31:00,68.2,65.5,29.95,WSW,247,0.0,0.0,91,0.00,CLR,,0.00,0.0,WeatherDisplay:10.37,2013-07-07 06:31:00,
2013-07-07 01:36:00,68.2,65.5,29.95,WSW,246,0.0,0.0,91,0.00,CLR,,0.00,0.0,WeatherDisplay:10.37,2013-07-07 06:36:00,
2013-07-07 01:41:00,68.1,65.4,29.95,WSW,247,0.0,0.0,91,0.00,CLR,,0.00,0.0,WeatherDisplay:10.37,2013-07-07 06:41:00,
2013-07-07 01:46:00,68.2,65.5,29.95,SW,223,0.0,0.0,91,0.00,CLR,,0.00,0.0,WeatherDisplay:10.37,2013-07-07 06:46:00,
2013-07-07 01:51:00,68.2,65.5,29.95,SW,223,0.0,0.0,91,0.00,CLR,,0.00,0.0,WeatherDisplay:10.37,2013-07-07 06:51:00,
2013-07-07 01:56:00,68.2,65.8,29.95,SW,222,0.0,0.0,92,0.00,CLR,,0.00,0.0,WeatherDisplay:10.37,2013-07-07 06:56:00,
2013-07-07 02:01:00,68.3,65.9,29.95,SW,223,0.0,0.0,92,0.00,CLR,,0.00,0.0,WeatherDisplay:10.37,2013-07-07 07:01:00,
2013-07-07 02:06:00,68.3,65.9,29.95,SW,223,0.0,0.0,92,0.00,CLR,,0.00,0.0,WeatherDisplay:10.37,2013-07-07 07:06:00,
2013-07-07 02:11:00,68.3,65.9,29.94,SW,222,0.0,0.0,92,0.00,CLR,,0.00,0.0,WeatherDisplay:10.37,2013-07-07 07:11:00,
2013-07-07 02:16:00,68.3,65.9,29.94,SW,223,0.0,0.0,92,0.00,CLR,,0.00,0.0,WeatherDisplay:10.37,2013-07-07 07:16:00,
2013-07-07 02:21:00,68.3,65.9,29.94,SW,223,0.0,0.0,92,0.00,CLR,,0.00,0.0,WeatherDisplay:10.37,2013-07-07 07:21:00,
2013-07-07 02:26:00,68.3,65.9,29.94,SW,223,0.0,0.0,92,0.00,CLR,,0.00,0.0,WeatherDisplay:10.37,2013-07-07 07:26:00,
2013-07-07 02:31:00,68.2,65.8,29.94,SW,222,0.0,0.0,92,0.00,CLR,,0.00,0.0,WeatherDisplay:10.37,2013-07-07 07:31:00,
2013-07-07 02:36:00,68.1,65.7,29.94,SW,222,0.0,0.0,92,0.00,CLR,,0.00,0.0,WeatherDisplay:10.37,2013-07-07 07:36:00,
2013-07-07 02:41:00,68.1,66.0,29.93,SW,222,0.0,0.0,93,0.00,CLR,,0.00,0.0,WeatherDisplay:10.37,2013-07-07 07:41:00,
2013-07-07 02:46:00,68.1,66.0,29.94,SW,222,0.0,0.0,93,0.00,CLR,,0.00,0.0,WeatherDisplay:10.37,2013-07-07 07:46:00,
2013-07-07 02:51:00,68.0,65.9,29.94,SW,222,0.0,0.0,93,0.00,CLR,,0.00,0.0,WeatherDisplay:10.37,2013-07-07 07:51:00,
2013-07-07 02:56:00,67.8,65.7,29.93,SW,222,0.0,0.0,93,0.00,CLR,,0.00,0.0,WeatherDisplay:10.37,2013-07-07 07:56:00,
2013-07-07 03:01:00,67.8,65.7,29.93,SW,222,0.0,0.0,93,0.00,CLR,,0.00,0.0,WeatherDisplay:10.37,2013-07-07 08:01:00,
2013-07-07 03:06:00,67.7,65.6,29.93,SW,222,0.0,0.0,93,0.00,CLR,,0.00,0.0,WeatherDisplay:10.37,2013-07-07 08:06:00,
2013-07-07 03:11:00,67.5,65.4,29.93,SW,222,0.0,0.0,93,0.00,CLR,,0.00,0.0,WeatherDisplay:10.37,2013-07-07 08:11:00,
2013-07-07 03:16:00,67.4,65.3,29.94,SW,222,0.0,0.0,93,0.00,CLR,,0.00,0.0,WeatherDisplay:10.37,2013-07-07 08:16:00,
2013-07-07 03:21:00,67.3,65.2,29.94,SW,222,0.0,0.0,93,0.00,CLR,,0.00,0.0,WeatherDisplay:10.37,2013-07-07 08:21:00,
2013-07-07 03:26:00,67.3,65.2,29.94,SW,222,0.0,0.0,93,0.00,CLR,,0.00,0.0,WeatherDisplay:10.37,2013-07-07 08:26:00,
2013-07-07 03:31:00,67.2,65.1,29.94,SW,222,0.0,0.0,93,0.00,CLR,,0.00,0.0,WeatherDisplay:10.37,2013-07-07 08:31:00,
2013-07-07 03:36:00,67.2,65.1,29.94,SW,222,0.0,0.0,93,0.00,CLR,,0.00,0.0,WeatherDisplay:10.37,2013-07-07 08:36:00,
2013-07-07 03:41:00,67.1,65.0,29.94,SW,222,0.0,0.0,93,0.00,CLR,,0.00,0.0,WeatherDisplay:10.37,2013-07-07 08:41:00,
2013-07-07 03:46:00,67.0,64.9,29.94,SW,222,0.0,0.0,93,0.00,CLR,,0.00,0.0,WeatherDisplay:10.37,2013-07-07 08:46:00,
2013-07-07 03:51:00,66.9,64.8,29.94,SW,222,0.0,0.0,93,0.00,CLR,,0.00,0.0,WeatherDisplay:10.37,2013-07-07 08:51:00,
2013-07-07 03:56:00,66.8,64.7,29.94,SW,222,0.0,0.0,93,0.00,CLR,,0.00,0.0,WeatherDisplay:10.37,2013-07-07 08:56:00,
2013-07-07 04:01:00,66.7,64.6,29.94,SW,222,0.0,0.0,93,0.00,CLR,,0.00,0.0,WeatherDisplay:10.37,2013-07-07 09:01:00,
2013-07-07 04:06:00,66.7,64.6,29.94,SW,222,0.0,0.0,93,0.00,CLR,,0.00,0.0,WeatherDisplay:10.37,2013-07-07 09:06:00,
2013-07-07 04:11:00,66.6,64.8,29.94,SW,222,0.0,0.0,94,0.00,CLR,,0.00,0.0,WeatherDisplay:10.37,2013-07-07 09:11:00,
2013-07-07 04:16:00,66.6,64.8,29.94,SW,222,0.0,0.0,94,0.00,CLR,,0.00,0.0,WeatherDisplay:10.37,2013-07-07 09:16:00,
2013-07-07 04:21:00,66.6,64.8,29.94,SW,222,0.0,0.0,94,0.00,CLR,,0.00,0.0,WeatherDisplay:10.37,2013-07-07 09:21:00,
2013-07-07 04:26:00,66.6,64.8,29.94,SW,222,0.0,0.0,94,0.00,CLR,,0.00,0.0,WeatherDisplay:10.37,2013-07-07 09:26:00,
2013-07-07 04:31:00,66.5,64.7,29.94,SW,222,0.0,0.0,94,0.00,CLR,,0.00,0.0,WeatherDisplay:10.37,2013-07-07 09:31:00,
2013-07-07 04:36:00,66.4,64.6,29.94,SW,222,0.0,0.0,94,0.00,CLR,,0.00,0.0,WeatherDisplay:10.37,2013-07-07 09:36:00,
2013-07-07 04:41:00,66.4,64.6,29.94,SW,222,0.0,0.0,94,0.00,CLR,,0.00,0.0,WeatherDisplay:10.37,2013-07-07 09:41:00,
2013-07-07 04:46:00,66.3,64.5,29.94,SW,222,0.0,0.0,94,0.00,CLR,,0.00,0.0,WeatherDisplay:10.37,2013-07-07 09:46:00,
2013-07-07 04:51:00,66.3,64.5,29.94,SW,222,0.0,0.0,94,0.00,CLR,,0.00,0.0,WeatherDisplay:10.37,2013-07-07 09:51:00,
2013-07-07 04:56:00,66.3,64.5,29.94,SW,222,0.0,0.0,94,0.00,CLR,,0.00,0.0,WeatherDisplay:10.37,2013-07-07 09:56:00,
2013-07-07 05:01:00,66.3,64.5,29.94,SW,222,0.0,0.0,94,0.00,OVC,,0.00,0.0,WeatherDisplay:10.37,2013-07-07 10:01:00,
2013-07-07 05:06:00,66.2,64.4,29.94,SW,222,0.0,0.0,94,0.00,OVC,,0.00,0.0,WeatherDisplay:10.37,2013-07-07 10:06:00,
2013-07-07 05:11:00,66.2,64.4,29.94,SW,222,0.0,0.0,94,0.00,OVC,,0.00,0.0,WeatherDisplay:10.37,2013-07-07 10:11:00,
2013-07-07 05:16:00,66.1,64.3,29.94,SW,222,0.0,0.0,94,0.00,OVC,,0.00,0.0,WeatherDisplay:10.37,2013-07-07 10:16:00,
2013-07-07 05:21:00,66.1,64.3,29.94,SW,222,0.0,0.0,94,0.00,OVC,,0.00,0.0,WeatherDisplay:10.37,2013-07-07 10:21:00,
2013-07-07 05:26:00,66.1,64.3,29.94,SW,222,0.0,0.0,94,0.00,OVC,,0.00,0.0,WeatherDisplay:10.37,2013-07-07 10:26:00,
2013-07-07 05:31:00,66.1,64.3,29.94,SW,222,0.0,0.0,94,0.00,OVC,,0.00,0.0,WeatherDisplay:10.37,2013-07-07 10:31:00,
2013-07-07 05:36:00,66.1,64.3,29.94,SW,222,0.0,0.0,94,0.00,OVC,,0.00,0.0,WeatherDisplay:10.37,2013-07-07 10:36:00,
2013-07-07 05:41:00,66.2,64.4,29.94,SW,222,0.0,0.0,94,0.00,BKN,,0.00,7.0,WeatherDisplay:10.37,2013-07-07 10:41:00,
2013-07-07 05:46:00,66.2,64.7,29.94,SW,222,0.0,0.0,95,0.00,BKN,,0.00,9.0,WeatherDisplay:10.37,2013-07-07 10:46:00,
2013-07-07 05:51:00,66.3,64.8,29.94,SW,222,0.0,0.0,95,0.00,BKN,,0.00,12.0,WeatherDisplay:10.37,2013-07-07 10:51:00,
2013-07-07 05:56:00,66.3,64.8,29.94,SW,222,0.0,0.0,95,0.00,BKN,,0.00,14.0,WeatherDisplay:10.37,2013-07-07 10:56:00,
2013-07-07 06:01:00,66.3,64.8,29.95,SW,222,0.0,0.0,95,0.00,BKN,,0.00,14.0,WeatherDisplay:10.37,2013-07-07 11:01:00,
2013-07-07 06:06:00,66.4,64.9,29.94,SW,222,0.0,0.0,95,0.00,BKN,,0.00,14.0,WeatherDisplay:10.37,2013-07-07 11:06:00,
2013-07-07 06:11:00,66.4,64.9,29.94,SW,222,0.0,0.0,95,0.00,BKN,,0.00,12.0,WeatherDisplay:10.37,2013-07-07 11:11:00,
2013-07-07 06:16:00,66.5,65.0,29.94,SW,222,0.0,0.0,95,0.00,BKN,,0.00,12.0,WeatherDisplay:10.37,2013-07-07 11:16:00,
2013-07-07 06:21:00,66.6,65.1,29.95,SW,222,0.0,0.0,95,0.00,BKN,,0.00,16.0,WeatherDisplay:10.37,2013-07-07 11:21:00,
2013-07-07 06:26:00,66.7,65.2,29.94,SW,222,0.0,0.0,95,0.00,BKN,,0.00,16.0,WeatherDisplay:10.37,2013-07-07 11:26:00,
2013-07-07 06:31:00,66.8,65.3,29.94,SW,222,0.0,0.0,95,0.00,BKN,,0.00,14.0,WeatherDisplay:10.37,2013-07-07 11:31:00,
2013-07-07 06:36:00,66.9,65.4,29.94,SW,222,0.0,0.0,95,0.00,BKN,,0.00,12.0,WeatherDisplay:10.37,2013-07-07 11:36:00,
2013-07-07 06:41:00,67.0,65.5,29.94,SW,222,0.0,0.0,95,0.00,BKN,,0.00,14.0,WeatherDisplay:10.37,2013-07-07 11:41:00,
2013-07-07 06:46:00,67.0,65.5,29.94,SW,222,0.0,0.0,95,0.00,BKN,,0.00,16.0,WeatherDisplay:10.37,2013-07-07 11:46:00,
2013-07-07 06:51:00,67.1,65.6,29.94,SW,222,0.0,0.0,95,0.00,BKN,,0.00,18.0,WeatherDisplay:10.37,2013-07-07 11:51:00,
2013-07-07 06:56:00,67.2,65.7,29.94,SW,222,0.0,0.0,95,0.00,BKN,,0.00,18.0,WeatherDisplay:10.37,2013-07-07 11:56:00,
2013-07-07 07:01:00,67.2,65.7,29.94,SW,222,0.0,0.0,95,0.00,BKN,,0.00,26.0,WeatherDisplay:10.37,2013-07-07 12:01:00,
2013-07-07 07:06:00,67.3,65.8,29.94,SW,222,0.0,0.0,95,0.00,BKN,,0.00,26.0,WeatherDisplay:10.37,2013-07-07 12:06:00,
2013-07-07 07:11:00,67.4,65.9,29.95,SW,222,0.0,0.0,95,0.00,BKN,,0.00,28.0,WeatherDisplay:10.37,2013-07-07 12:11:00,
2013-07-07 07:16:00,67.5,66.0,29.95,SW,222,0.0,0.0,95,0.00,BKN,,0.00,28.0,WeatherDisplay:10.37,2013-07-07 12:16:00,
2013-07-07 07:21:00,67.7,66.5,29.94,SW,222,0.0,0.0,96,0.00,BKN,,0.00,35.0,WeatherDisplay:10.37,2013-07-07 12:21:00,
2013-07-07 07:26:00,68.0,66.8,29.94,SW,222,0.0,0.0,96,0.00,BKN,,0.00,44.0,WeatherDisplay:10.37,2013-07-07 12:26:00,
2013-07-07 07:31:00,68.1,66.9,29.94,SW,222,0.0,0.0,96,0.00,BKN,,0.00,62.0,WeatherDisplay:10.37,2013-07-07 12:31:00,
2013-07-07 07:36:00,68.4,67.2,29.94,SW,222,0.0,0.0,96,0.00,BKN,,0.00,47.0,WeatherDisplay:10.37,2013-07-07 12:36:00,
2013-07-07 07:41:00,68.6,67.4,29.95,SW,222,0.0,0.0,96,0.00,BKN,,0.00,40.0,WeatherDisplay:10.37,2013-07-07 12:41:00,
2013-07-07 07:46:00,68.7,67.5,29.94,SW,222,0.0,0.0,96,0.00,BKN,,0.00,37.0,WeatherDisplay:10.37,2013-07-07 12:46:00,
2013-07-07 07:51:00,68.8,67.6,29.95,SW,222,0.0,0.0,96,0.00,BKN,,0.00,47.0,WeatherDisplay:10.37,2013-07-07 12:51:00,
2013-07-07 07:56:00,68.9,67.7,29.94,SW,222,0.0,0.0,96,0.00,BKN,,0.00,58.0,WeatherDisplay:10.37,2013-07-07 12:56:00,
2013-07-07 08:01:00,69.1,67.9,29.94,SE,140,0.0,0.0,96,0.00,BKN,,0.00,84.0,WeatherDisplay:10.37,2013-07-07 13:01:00,
2013-07-07 08:06:00,69.4,68.2,29.94,SW,227,1.1,1.1,96,0.00,BKN,,0.00,107.0,WeatherDisplay:10.37,2013-07-07 13:06:00,
2013-07-07 08:11:00,69.7,68.5,29.94,SW,228,1.1,1.1,96,0.00,BKN,,0.00,118.0,WeatherDisplay:10.37,2013-07-07 13:11:00,
2013-07-07 08:16:00,70.0,68.8,29.95,WSW,250,1.1,0.0,96,0.00,BKN,,0.00,111.0,WeatherDisplay:10.37,2013-07-07 13:16:00,
2013-07-07 08:21:00,70.3,69.1,29.95,WNW,285,6.0,6.0,96,0.00,BKN,,0.00,109.0,WeatherDisplay:10.37,2013-07-07 13:21:00,
2013-07-07 08:26:00,70.3,69.1,29.95,WSW,238,1.1,0.0,96,0.00,BKN,,0.00,146.0,WeatherDisplay:10.37,2013-07-07 13:26:00,
2013-07-07 08:31:00,70.4,69.2,29.95,SSW,210,0.0,0.0,96,0.00,BKN,,0.00,111.0,WeatherDisplay:10.37,2013-07-07 13:31:00,
2013-07-07 08:36:00,70.7,69.5,29.95,South,187,0.0,0.0,96,0.00,BKN,,0.00,100.0,WeatherDisplay:10.37,2013-07-07 13:36:00,
2013-07-07 08:41:00,70.8,69.6,29.95,WNW,291,3.5,0.0,96,0.00,BKN,,0.00,139.0,WeatherDisplay:10.37,2013-07-07 13:41:00,
2013-07-07 08:46:00,71.0,69.8,29.95,West,277,1.1,1.1,96,0.00,BKN,,0.00,176.0,WeatherDisplay:10.37,2013-07-07 13:46:00,
2013-07-07 08:51:00,71.3,70.1,29.94,SSW,206,0.0,0.0,96,0.00,BKN,,0.00,199.0,WeatherDisplay:10.37,2013-07-07 13:51:00,
2013-07-07 08:56:00,71.6,70.4,29.94,SSW,192,1.1,0.0,96,0.00,BKN,,0.00,134.0,WeatherDisplay:10.37,2013-07-07 13:56:00,
2013-07-07 09:01:00,71.9,70.4,29.94,ESE,106,0.0,0.0,95,0.00,BKN,,0.00,155.0,WeatherDisplay:10.37,2013-07-07 14:01:00,
2013-07-07 09:06:00,72.5,71.0,29.95,SSE,148,0.0,0.2,95,0.00,BKN,,0.00,171.0,WeatherDisplay:10.37,2013-07-07 14:06:00,
2013-07-07 09:11:00,72.9,71.4,29.95,SE,145,0.0,0.0,95,0.00,BKN,,0.00,469.0,WeatherDisplay:10.37,2013-07-07 14:11:00,
2013-07-07 09:16:00,73.2,71.7,29.94,South,179,1.1,1.1,95,0.00,SCT,,0.00,425.0,WeatherDisplay:10.37,2013-07-07 14:16:00,
2013-07-07 09:21:00,73.7,71.9,29.94,South,179,1.1,0.0,94,0.00,SCT,,0.00,411.0,WeatherDisplay:10.37,2013-07-07 14:21:00,
2013-07-07 09:26:00,74.2,72.0,29.94,SW,231,2.3,2.3,93,0.00,SCT,,0.00,534.0,WeatherDisplay:10.37,2013-07-07 14:26:00,
2013-07-07 09:31:00,74.7,72.2,29.94,West,278,1.1,0.0,92,0.00,FEW,,0.00,555.0,WeatherDisplay:10.37,2013-07-07 14:31:00,
2013-07-07 09:36:00,75.5,72.4,29.94,WNW,294,1.1,1.1,90,0.00,FEW,,0.00,578.0,WeatherDisplay:10.37,2013-07-07 14:36:00,
2013-07-07 09:41:00,76.3,72.8,29.94,WNW,294,1.1,1.1,89,0.00,FEW,,0.00,577.0,WeatherDisplay:10.37,2013-07-07 14:41:00,
2013-07-07 09:46:00,76.8,72.6,29.94,East,84,1.1,1.1,87,0.00,SCT,,0.00,515.0,WeatherDisplay:10.37,2013-07-07 14:46:00,
2013-07-07 09:51:00,77.6,73.1,29.94,WSW,238,2.0,2.0,86,0.00,FEW,,0.00,629.0,WeatherDisplay:10.37,2013-07-07 14:51:00,
2013-07-07 09:56:00,78.2,73.0,29.94,SW,236,2.3,2.3,84,0.00,FEW,,0.00,515.0,WeatherDisplay:10.37,2013-07-07 14:56:00,
2013-07-07 10:01:00,78.4,72.4,29.94,West,280,2.3,2.3,82,0.00,SCT,,0.00,211.0,WeatherDisplay:10.37,2013-07-07 15:01:00,
2013-07-07 10:06:00,78.4,72.1,29.94,WSW,243,0.0,0.0,81,0.00,BKN,,0.00,251.0,WeatherDisplay:10.37,2013-07-07 15:06:00,
2013-07-07 10:11:00,78.7,72.0,29.94,WNW,283,3.5,0.0,80,0.00,BKN,,0.00,673.0,WeatherDisplay:10.37,2013-07-07 15:11:00,
2013-07-07 10:16:00,79.3,73.0,29.93,North,353,1.0,0.0,81,0.00,SCT,,0.00,684.0,WeatherDisplay:10.37,2013-07-07 15:16:00,
2013-07-07 10:21:00,80.0,72.1,29.93,West,281,2.3,2.3,77,0.00,FEW,,0.00,691.0,WeatherDisplay:10.37,2013-07-07 15:21:00,
2013-07-07 10:26:00,80.5,72.2,29.93,SW,225,1.1,0.0,76,0.00,FEW,,0.00,684.0,WeatherDisplay:10.37,2013-07-07 15:26:00,
2013-07-07 10:31:00,80.8,72.9,29.94,WNW,283,2.3,2.3,77,0.00,FEW,,0.00,710.0,WeatherDisplay:10.37,2013-07-07 15:31:00,
2013-07-07 10:36:00,81.1,72.8,29.94,ENE,73,3.5,3.5,76,0.00,FEW,,0.00,712.0,WeatherDisplay:10.37,2013-07-07 15:36:00,
2013-07-07 10:41:00,81.4,73.5,29.94,West,271,0.0,0.0,77,0.00,FEW,,0.00,663.0,WeatherDisplay:10.37,2013-07-07 15:41:00,
2013-07-07 10:46:00,81.5,73.6,29.94,WNW,292,1.1,1.1,77,0.00,FEW,,0.00,761.0,WeatherDisplay:10.37,2013-07-07 15:46:00,
2013-07-07 10:51:00,81.8,73.5,29.94,WSW,258,2.0,2.0,76,0.00,FEW,,0.00,816.0,WeatherDisplay:10.37,2013-07-07 15:51:00,
2013-07-07 10:56:00,82.1,73.4,29.93,West,267,1.1,1.8,75,0.00,FEW,,0.00,805.0,WeatherDisplay:10.37,2013-07-07 15:56:00,
2013-07-07 11:01:00,82.2,73.1,29.93,WNW,298,3.5,3.5,74,0.00,FEW,,0.00,461.0,WeatherDisplay:10.37,2013-07-07 16:01:00,
2013-07-07 11:06:00,82.2,73.5,29.93,West,277,1.1,1.1,75,0.00,FEW,,0.00,807.0,WeatherDisplay:10.37,2013-07-07 16:06:00,
2013-07-07 11:11:00,82.4,73.3,29.93,West,271,1.1,1.1,74,0.00,FEW,,0.00,846.0,WeatherDisplay:10.37,2013-07-07 16:11:00,
2013-07-07 11:16:00,82.3,72.8,29.93,WNW,290,3.5,3.5,73,0.00,FEW,,0.00,383.0,WeatherDisplay:10.37,2013-07-07 16:16:00,
2013-07-07 11:21:00,82.4,73.3,29.93,NE,50,1.1,0.0,74,0.00,SCT,,0.00,758.0,WeatherDisplay:10.37,2013-07-07 16:21:00,
2013-07-07 11:26:00,82.8,74.1,29.93,SSW,210,3.5,3.5,75,0.00,SCT,,0.00,807.0,WeatherDisplay:10.37,2013-07-07 16:26:00,
2013-07-07 11:31:00,83.2,73.6,29.93,WNW,282,1.1,1.1,73,0.00,FEW,,0.00,823.0,WeatherDisplay:10.37,2013-07-07 16:31:00,
2013-07-07 11:36:00,83.2,73.2,29.93,WSW,252,1.1,1.1,72,0.00,FEW,,0.00,821.0,WeatherDisplay:10.37,2013-07-07 16:36:00,
2013-07-07 11:41:00,83.5,73.5,29.92,West,269,4.6,4.6,72,0.00,FEW,,0.00,823.0,WeatherDisplay:10.37,2013-07-07 16:41:00,
2013-07-07 11:46:00,83.8,73.8,29.93,West,265,3.5,3.5,72,0.00,FEW,,0.00,819.0,WeatherDisplay:10.37,2013-07-07 16:46:00,
2013-07-07 11:51:00,83.9,73.5,29.93,WNW,284,2.3,0.0,71,0.00,FEW,,0.00,821.0,WeatherDisplay:10.37,2013-07-07 16:51:00,
2013-07-07 11:56:00,84.3,73.4,29.92,West,277,3.5,3.5,70,0.00,FEW,,0.00,840.0,WeatherDisplay:10.37,2013-07-07 16:56:00,
2013-07-07 12:01:00,84.7,73.8,29.92,NW,310,3.5,3.5,70,0.00,FEW,,0.00,838.0,WeatherDisplay:10.37,2013-07-07 17:01:00,
2013-07-07 12:06:00,84.8,72.6,29.92,West,265,3.5,3.5,67,0.00,FEW,,0.00,840.0,WeatherDisplay:10.37,2013-07-07 17:06:00,
2013-07-07 12:11:00,84.9,73.2,29.92,NW,315,1.1,0.0,68,0.00,FEW,,0.00,824.0,WeatherDisplay:10.37,2013-07-07 17:11:00,
2013-07-07 12:16:00,85.4,74.5,29.93,WNW,284,3.0,3.0,70,0.00,FEW,,0.00,849.0,WeatherDisplay:10.37,2013-07-07 17:16:00,
2013-07-07 12:21:00,85.3,72.6,29.93,WNW,288,3.5,3.5,66,0.00,FEW,,0.00,853.0,WeatherDisplay:10.37,2013-07-07 17:21:00,
2013-07-07 12:26:00,85.2,73.9,29.92,WNW,298,2.0,2.0,69,0.00,FEW,,0.00,851.0,WeatherDisplay:10.37,2013-07-07 17:26:00,
2013-07-07 12:31:00,85.2,73.4,29.92,West,271,3.5,3.5,68,0.00,FEW,,0.00,860.0,WeatherDisplay:10.37,2013-07-07 17:31:00,
2013-07-07 12:36:00,85.6,73.8,29.92,WNW,285,1.1,0.0,68,0.00,FEW,,0.00,854.0,WeatherDisplay:10.37,2013-07-07 17:36:00,
2013-07-07 12:41:00,85.7,71.7,29.92,West,281,2.3,2.3,63,0.00,FEW,,0.00,840.0,WeatherDisplay:10.37,2013-07-07 17:41:00,
2013-07-07 12:46:00,85.8,72.7,29.92,West,261,3.5,3.5,65,0.00,FEW,,0.00,872.0,WeatherDisplay:10.37,2013-07-07 17:46:00,
2013-07-07 12:51:00,86.0,72.9,29.92,ESE,105,1.1,1.1,65,0.00,FEW,,0.00,872.0,WeatherDisplay:10.37,2013-07-07 17:51:00,
2013-07-07 12:56:00,86.4,74.6,29.92,ESE,110,1.1,1.1,68,0.00,FEW,,0.00,886.0,WeatherDisplay:10.37,2013-07-07 17:56:00,
2013-07-07 13:01:00,86.4,73.7,29.92,SSW,213,2.3,2.3,66,0.00,FEW,,0.00,925.0,WeatherDisplay:10.37,2013-07-07 18:01:00,
2013-07-07 13:06:00,86.4,74.1,29.92,SSW,199,2.0,2.0,67,0.00,FEW,,0.00,970.0,WeatherDisplay:10.37,2013-07-07 18:06:00,
2013-07-07 13:11:00,86.6,73.4,29.92,NNW,329,4.6,4.6,65,0.00,FEW,,0.00,974.0,WeatherDisplay:10.37,2013-07-07 18:11:00,
2013-07-07 13:16:00,86.7,72.6,29.92,WSW,250,3.0,3.0,63,0.00,FEW,,0.00,891.0,WeatherDisplay:10.37,2013-07-07 18:16:00,
2013-07-07 13:21:00,86.9,72.8,29.92,SW,229,3.5,3.5,63,0.00,FEW,,0.00,707.0,WeatherDisplay:10.37,2013-07-07 18:21:00,
2013-07-07 13:26:00,86.7,71.2,29.91,WSW,242,3.5,3.5,60,0.00,SCT,,0.00,703.0,WeatherDisplay:10.37,2013-07-07 18:26:00,
2013-07-07 13:31:00,86.7,73.1,29.91,WSW,241,2.3,0.0,64,0.00,SCT,,0.00,524.0,WeatherDisplay:10.37,2013-07-07 18:31:00,
2013-07-07 13:36:00,86.6,72.0,29.91,WSW,250,3.5,3.5,62,0.00,SCT,,0.00,366.0,WeatherDisplay:10.37,2013-07-07 18:36:00,
2013-07-07 13:41:00,86.3,72.2,29.91,SSW,211,2.3,0.0,63,0.00,BKN,,0.00,288.0,WeatherDisplay:10.37,2013-07-07 18:41:00,
2013-07-07 13:46:00,86.2,73.0,29.91,SSW,210,0.0,0.0,65,0.00,BKN,,0.00,271.0,WeatherDisplay:10.37,2013-07-07 18:46:00,
2013-07-07 13:51:00,85.7,72.6,29.91,SSW,195,4.0,4.0,65,0.00,BKN,,0.00,262.0,WeatherDisplay:10.37,2013-07-07 18:51:00,
2013-07-07 13:56:00,85.1,72.0,29.91,West,277,1.1,1.1,65,0.00,BKN,,0.00,250.0,WeatherDisplay:10.37,2013-07-07 18:56:00,
2013-07-07 13:57:00,85.1,72.9,29.91,West,277,2.3,0.0,67,0.00,BKN,,0.00,250.0,WeatherDisplay:10.37,2013-07-07 18:57:00,
2013-07-07 14:02:00,84.6,72.4,29.91,WSW,250,0.0,0.0,67,0.00,BKN,,0.00,211.0,WeatherDisplay:10.37,2013-07-07 19:02:00,
2013-07-07 14:07:00,84.2,72.0,29.91,WSW,251,0.0,0.0,67,0.00,BKN,,0.00,179.0,WeatherDisplay:10.37,2013-07-07 19:07:00,
2013-07-07 14:12:00,83.8,73.0,29.91,WSW,251,0.0,0.0,70,0.00,BKN,,0.00,155.0,WeatherDisplay:10.37,2013-07-07 19:12:00,
2013-07-07 14:17:00,83.5,73.1,29.91,WSW,252,1.1,0.0,71,0.00,BKN,,0.00,146.0,WeatherDisplay:10.37,2013-07-07 19:17:00,
2013-07-07 14:22:00,83.1,72.7,29.91,WSW,252,1.0,0.0,71,0.00,BKN,,0.00,144.0,WeatherDisplay:10.37,2013-07-07 19:22:00,
2013-07-07 14:28:00,82.7,72.3,29.91,WSW,252,0.0,0.0,71,0.00,BKN,,0.00,165.0,WeatherDisplay:10.37,2013-07-07 19:28:00,
2013-07-07 14:33:00,82.4,72.5,29.91,WSW,252,2.3,0.0,72,0.00,BKN,,0.00,193.0,WeatherDisplay:10.37,2013-07-07 19:33:00,
2013-07-07 14:38:00,82.4,73.7,29.91,WSW,252,1.1,0.0,75,0.00,BKN,,0.00,195.0,WeatherDisplay:10.37,2013-07-07 19:38:00,
2013-07-07 14:43:00,82.3,73.6,29.91,WSW,252,0.0,0.0,75,0.00,BKN,,0.00,193.0,WeatherDisplay:10.37,2013-07-07 19:43:00,
2013-07-07 14:48:00,82.2,73.9,29.91,WSW,250,0.0,0.1,76,0.00,BKN,,0.00,185.0,WeatherDisplay:10.37,2013-07-07 19:48:00,
2013-07-07 14:53:00,82.2,73.5,29.91,WSW,251,0.0,0.0,75,0.00,BKN,,0.00,193.0,WeatherDisplay:10.37,2013-07-07 19:53:00,
2013-07-07 14:58:00,82.1,73.0,29.91,WSW,251,1.1,1.1,74,0.00,BKN,,0.00,239.0,WeatherDisplay:10.37,2013-07-07 19:58:00,
2013-07-07 15:03:00,82.3,73.6,29.91,WSW,251,2.3,0.0,75,0.00,BKN,,0.00,350.0,WeatherDisplay:10.37,2013-07-07 20:03:00,
2013-07-07 15:08:00,82.8,73.7,29.91,South,186,3.5,3.5,74,0.00,BKN,,0.00,313.0,WeatherDisplay:10.37,2013-07-07 20:08:00,
2013-07-07 15:13:00,83.0,73.0,29.91,WSW,253,0.0,1.3,72,0.00,BKN,,0.00,246.0,WeatherDisplay:10.37,2013-07-07 20:13:00,
2013-07-07 15:18:00,83.1,73.1,29.91,WSW,252,1.1,1.1,72,0.00,BKN,,0.00,192.0,WeatherDisplay:10.37,2013-07-07 20:18:00,
2013-07-07 15:23:00,83.1,73.5,29.90,West,266,1.1,1.1,73,0.00,BKN,,0.00,158.0,WeatherDisplay:10.37,2013-07-07 20:23:00,
2013-07-07 15:28:00,82.8,73.3,29.91,NW,325,0.0,0.0,73,0.00,BKN,,0.00,167.0,WeatherDisplay:10.37,2013-07-07 20:28:00,
2013-07-07 15:33:00,82.4,72.5,29.90,SW,236,2.3,2.3,72,0.00,BKN,,0.00,190.0,WeatherDisplay:10.37,2013-07-07 20:33:00,
2013-07-07 15:38:00,82.3,72.8,29.90,SW,236,0.0,0.0,73,0.00,BKN,,0.00,264.0,WeatherDisplay:10.37,2013-07-07 20:38:00,
2013-07-07 15:43:00,82.4,72.9,29.90,SW,236,1.1,0.0,73,0.00,BKN,,0.00,708.0,WeatherDisplay:10.37,2013-07-07 20:43:00,
2013-07-07 15:48:00,83.0,73.4,29.90,SW,218,0.0,0.0,73,0.00,BKN,,0.00,260.0,WeatherDisplay:10.37,2013-07-07 20:48:00,
2013-07-07 15:53:00,83.4,74.2,29.90,SW,219,0.0,0.0,74,0.00,BKN,,0.00,329.0,WeatherDisplay:10.37,2013-07-07 20:53:00,
2013-07-07 15:58:00,83.6,74.0,29.90,WSW,258,0.0,0.6,73,0.00,BKN,,0.00,399.0,WeatherDisplay:10.37,2013-07-07 20:58:00,
2013-07-07 16:03:00,83.8,73.8,29.90,West,279,1.1,1.1,72,0.00,BKN,,0.00,346.0,WeatherDisplay:10.37,2013-07-07 21:03:00,
2013-07-07 16:08:00,84.0,73.2,29.90,West,274,1.1,0.0,70,0.00,BKN,,0.00,315.0,WeatherDisplay:10.37,2013-07-07 21:08:00,
2013-07-07 16:13:00,84.1,72.4,29.89,West,276,3.5,3.5,68,0.00,BKN,,0.00,253.0,WeatherDisplay:10.37,2013-07-07 21:13:00,
2013-07-07 16:18:00,84.1,72.8,29.89,WSW,241,4.6,4.6,69,0.00,BKN,,0.00,251.0,WeatherDisplay:10.37,2013-07-07 21:18:00,
2013-07-07 16:23:00,84.0,73.2,29.89,South,191,1.1,0.0,70,0.00,BKN,,0.00,216.0,WeatherDisplay:10.37,2013-07-07 21:23:00,
2013-07-07 16:28:00,84.0,74.0,29.89,SSW,192,1.1,0.0,72,0.00,BKN,,0.00,265.0,WeatherDisplay:10.37,2013-07-07 21:28:00,
2013-07-07 16:33:00,83.9,73.1,29.89,SW,215,3.5,3.5,70,0.00,BKN,,0.00,223.0,WeatherDisplay:10.37,2013-07-07 21:33:00,
2013-07-07 16:38:00,83.9,73.9,29.89,West,276,2.0,2.0,72,0.00,BKN,,0.00,315.0,WeatherDisplay:10.37,2013-07-07 21:38:00,
2013-07-07 16:43:00,83.9,73.1,29.89,WNW,285,1.1,1.1,70,0.00,BKN,,0.00,195.0,WeatherDisplay:10.37,2013-07-07 21:43:00,
2013-07-07 16:48:00,83.7,71.6,29.89,WNW,301,2.3,2.3,67,0.00,BKN,,0.00,146.0,WeatherDisplay:10.37,2013-07-07 21:48:00,
2013-07-07 16:53:00,83.3,71.2,29.89,SW,234,4.6,4.6,67,0.00,BKN,,0.00,114.0,WeatherDisplay:10.37,2013-07-07 21:53:00,
2013-07-07 16:58:00,83.1,71.9,29.89,SW,215,1.1,0.0,69,0.00,BKN,,0.00,111.0,WeatherDisplay:10.37,2013-07-07 21:58:00,
2013-07-07 17:03:00,82.8,71.6,29.89,West,275,1.1,0.0,69,0.00,BKN,,0.00,95.0,WeatherDisplay:10.37,2013-07-07 22:03:00,
2013-07-07 17:08:00,82.5,71.3,29.89,WSW,251,1.1,0.0,69,0.00,BKN,,0.00,105.0,WeatherDisplay:10.37,2013-07-07 22:08:00,
2013-07-07 17:13:00,82.3,72.0,29.89,WSW,250,0.0,0.0,71,0.00,BKN,,0.00,100.0,WeatherDisplay:10.37,2013-07-07 22:13:00,
2013-07-07 17:18:00,82.1,71.3,29.89,WSW,251,0.0,0.0,70,0.00,BKN,,0.00,93.0,WeatherDisplay:10.37,2013-07-07 22:18:00,
2013-07-07 17:23:00,81.8,71.5,29.89,SW,231,0.0,0.0,71,0.00,BKN,,0.00,93.0,WeatherDisplay:10.37,2013-07-07 22:23:00,
2013-07-07 17:28:00,81.7,71.8,29.89,SW,231,0.0,0.0,72,0.00,BKN,,0.00,100.0,WeatherDisplay:10.37,2013-07-07 22:28:00,
2013-07-07 17:33:00,81.5,71.6,29.89,SW,231,0.0,0.1,72,0.00,BKN,,0.00,116.0,WeatherDisplay:10.37,2013-07-07 22:33:00,
2013-07-07 17:38:00,81.3,71.4,29.89,SW,231,0.0,0.0,72,0.00,BKN,,0.00,118.0,WeatherDisplay:10.37,2013-07-07 22:38:00,
2013-07-07 17:43:00,81.3,71.8,29.89,SW,231,0.0,0.0,73,0.00,BKN,,0.00,134.0,WeatherDisplay:10.37,2013-07-07 22:43:00,
2013-07-07 17:48:00,81.3,71.8,29.89,SW,231,0.0,0.0,73,0.00,BKN,,0.00,163.0,WeatherDisplay:10.37,2013-07-07 22:48:00,
2013-07-07 17:53:00,81.4,72.3,29.89,SW,231,0.0,0.0,74,0.00,BKN,,0.00,128.0,WeatherDisplay:10.37,2013-07-07 22:53:00,
2013-07-07 17:58:00,81.6,72.5,29.89,SW,231,0.0,0.0,74,0.00,BKN,,0.00,109.0,WeatherDisplay:10.37,2013-07-07 22:58:00,
2013-07-07 18:03:00,81.6,72.5,29.89,SW,231,0.0,0.0,74,0.00,BKN,,0.00,100.0,WeatherDisplay:10.37,2013-07-07 23:03:00,
2013-07-07 18:08:00,81.6,72.9,29.89,SW,231,0.0,0.0,75,0.00,BKN,,0.00,107.0,WeatherDisplay:10.37,2013-07-07 23:08:00,
2013-07-07 18:13:00,81.7,73.0,29.89,SW,231,0.0,0.0,75,0.00,BKN,,0.00,102.0,WeatherDisplay:10.37,2013-07-07 23:13:00,
2013-07-07 18:18:00,81.7,73.4,29.89,SW,231,0.0,0.0,76,0.00,BKN,,0.00,98.0,WeatherDisplay:10.37,2013-07-07 23:18:00,
2013-07-07 18:23:00,81.5,73.2,29.89,SW,231,0.0,0.0,76,0.00,BKN,,0.00,97.0,WeatherDisplay:10.37,2013-07-07 23:23:00,
2013-07-07 18:28:00,81.4,72.7,29.89,SW,231,0.0,0.0,75,0.00,BKN,,0.00,83.0,WeatherDisplay:10.37,2013-07-07 23:28:00,
2013-07-07 18:33:00,81.3,72.6,29.89,SW,231,0.0,0.0,75,0.00,BKN,,0.00,79.0,WeatherDisplay:10.37,2013-07-07 23:33:00,
2013-07-07 18:38:00,81.2,72.9,29.89,West,259,0.0,0.1,76,0.00,BKN,,0.00,93.0,WeatherDisplay:10.37,2013-07-07 23:38:00,
2013-07-07 18:43:00,81.1,72.8,29.89,West,259,0.0,0.0,76,0.00,BKN,,0.00,97.0,WeatherDisplay:10.37,2013-07-07 23:43:00,
2013-07-07 18:48:00,81.0,72.3,29.89,WSW,258,0.0,0.0,75,0.00,BKN,,0.00,86.0,WeatherDisplay:10.37,2013-07-07 23:48:00,
2013-07-07 18:53:00,80.9,72.6,29.89,SW,229,1.1,1.1,76,0.00,BKN,,0.00,69.0,WeatherDisplay:10.37,2013-07-07 23:53:00,
2013-07-07 18:58:00,80.9,72.6,29.89,SW,229,0.0,0.0,76,0.00,BKN,,0.00,62.0,WeatherDisplay:10.37,2013-07-07 23:58:00,
2013-07-07 19:03:00,80.8,72.1,29.89,South,190,0.0,0.0,75,0.00,BKN,,0.00,53.0,WeatherDisplay:10.37,2013-07-08 00:03:00,
2013-07-07 19:08:00,80.7,72.4,29.89,SSW,196,0.0,0.0,76,0.00,BKN,,0.00,53.0,WeatherDisplay:10.37,2013-07-08 00:08:00,
2013-07-07 19:13:00,80.6,71.9,29.89,SSW,196,0.0,0.0,75,0.00,BKN,,0.00,44.0,WeatherDisplay:10.37,2013-07-08 00:13:00,
2013-07-07 19:18:00,80.6,71.9,29.89,WSW,248,0.0,0.0,75,0.00,BKN,,0.00,37.0,WeatherDisplay:10.37,2013-07-08 00:18:00,
2013-07-07 19:23:00,80.4,72.1,29.89,WSW,248,0.0,0.1,76,0.00,BKN,,0.00,35.0,WeatherDisplay:10.37,2013-07-08 00:23:00,
2013-07-07 19:28:00,80.1,71.8,29.89,WSW,248,0.0,0.0,76,0.00,BKN,,0.00,35.0,WeatherDisplay:10.37,2013-07-08 00:28:00,
2013-07-07 19:33:00,80.0,72.1,29.89,WSW,248,1.1,0.0,77,0.00,BKN,,0.00,28.0,WeatherDisplay:10.37,2013-07-08 00:33:00,
2013-07-07 19:38:00,79.8,71.9,29.89,WSW,247,0.0,0.0,77,0.00,BKN,,0.00,23.0,WeatherDisplay:10.37,2013-07-08 00:38:00,
2013-07-07 19:43:00,79.6,71.8,29.89,WSW,246,0.0,0.0,77,0.00,BKN,,0.00,26.0,WeatherDisplay:10.37,2013-07-08 00:43:00,
2013-07-07 19:48:00,79.5,72.0,29.89,WSW,246,0.0,0.0,78,0.00,BKN,,0.00,23.0,WeatherDisplay:10.37,2013-07-08 00:48:00,
2013-07-07 19:53:00,79.4,71.9,29.89,WSW,247,0.0,0.0,78,0.00,BKN,,0.00,18.0,WeatherDisplay:10.37,2013-07-08 00:53:00,
2013-07-07 19:58:00,79.4,71.9,29.89,WSW,247,0.0,0.0,78,0.00,BKN,,0.00,16.0,WeatherDisplay:10.37,2013-07-08 00:58:00,
2013-07-07 20:03:00,79.3,71.8,29.89,WSW,247,0.0,0.0,78,0.00,BKN,,0.00,16.0,WeatherDisplay:10.37,2013-07-08 01:03:00,
2013-07-07 20:08:00,79.1,71.6,29.89,WSW,247,0.0,0.0,78,0.00,BKN,,0.00,12.0,WeatherDisplay:10.37,2013-07-08 01:08:00,
2013-07-07 20:13:00,78.9,71.5,29.90,WSW,247,0.0,0.0,78,0.00,BKN,,0.00,12.0,WeatherDisplay:10.37,2013-07-08 01:13:00,
2013-07-07 20:18:00,78.8,71.4,29.90,WSW,246,0.0,0.0,78,0.00,BKN,,0.00,11.0,WeatherDisplay:10.37,2013-07-08 01:18:00,
2013-07-07 20:23:00,78.7,71.3,29.90,WSW,247,0.0,0.0,78,0.00,BKN,,0.00,9.0,WeatherDisplay:10.37,2013-07-08 01:23:00,
2013-07-07 20:28:00,78.6,71.5,29.89,WSW,247,0.0,0.0,79,0.00,OVC,,0.00,0.0,WeatherDisplay:10.37,2013-07-08 01:28:00,
2013-07-07 20:33:00,78.4,71.3,29.90,WSW,247,0.0,0.0,79,0.00,OVC,,0.00,0.0,WeatherDisplay:10.37,2013-07-08 01:33:00,
2013-07-07 20:38:00,78.2,70.8,29.90,WSW,247,0.0,0.0,78,0.00,OVC,,0.00,0.0,WeatherDisplay:10.37,2013-07-08 01:38:00,
2013-07-07 20:43:00,78.0,71.0,29.90,WSW,246,0.0,0.0,79,0.00,OVC,,0.00,0.0,WeatherDisplay:10.37,2013-07-08 01:43:00,
2013-07-07 20:48:00,77.8,70.8,29.90,WSW,247,0.0,0.0,79,0.00,OVC,,0.00,0.0,WeatherDisplay:10.37,2013-07-08 01:48:00,
2013-07-07 20:53:00,77.6,70.6,29.90,WSW,247,0.0,0.0,79,0.00,OVC,,0.00,0.0,WeatherDisplay:10.37,2013-07-08 01:53:00,
2013-07-07 20:58:00,77.3,70.3,29.90,WSW,246,0.0,0.0,79,0.00,OVC,,0.00,0.0,WeatherDisplay:10.37,2013-07-08 01:58:00,
2013-07-07 21:03:00,77.1,70.5,29.90,WSW,247,0.0,0.0,80,0.00,CLR,,0.00,0.0,WeatherDisplay:10.37,2013-07-08 02:03:00,
2013-07-07 21:08:00,76.8,70.2,29.90,WSW,247,0.0,0.0,80,0.00,CLR,,0.00,0.0,WeatherDisplay:10.37,2013-07-08 02:08:00,
2013-07-07 21:13:00,76.6,70.3,29.90,WSW,247,0.0,0.0,81,0.00,CLR,,0.00,0.0,WeatherDisplay:10.37,2013-07-08 02:13:00,
2013-07-07 21:18:00,76.4,70.1,29.91,WSW,246,0.0,0.0,81,0.00,CLR,,0.00,0.0,WeatherDisplay:10.37,2013-07-08 02:18:00,
2013-07-07 21:23:00,76.2,69.9,29.91,WSW,247,0.0,0.0,81,0.00,CLR,,0.00,0.0,WeatherDisplay:10.37,2013-07-08 02:23:00,
2013-07-07 21:28:00,76.0,70.1,29.91,WSW,247,0.0,0.0,82,0.00,CLR,,0.00,0.0,WeatherDisplay:10.37,2013-07-08 02:28:00,
2013-07-07 21:33:00,75.9,70.0,29.91,WSW,247,0.0,0.0,82,0.00,CLR,,0.00,0.0,WeatherDisplay:10.37,2013-07-08 02:33:00,
2013-07-07 21:38:00,75.7,69.8,29.91,WSW,247,0.0,0.0,82,0.00,CLR,,0.00,0.0,WeatherDisplay:10.37,2013-07-08 02:38:00,
2013-07-07 21:43:00,75.6,70.1,29.91,WSW,247,0.0,0.0,83,0.00,CLR,,0.00,0.0,WeatherDisplay:10.37,2013-07-08 02:43:00,
2013-07-07 21:48:00,75.4,69.9,29.91,WSW,247,0.0,0.0,83,0.00,CLR,,0.00,0.0,WeatherDisplay:10.37,2013-07-08 02:48:00,
2013-07-07 21:53:00,75.3,69.8,29.91,WSW,246,0.0,0.0,83,0.00,CLR,,0.00,0.0,WeatherDisplay:10.37,2013-07-08 02:53:00,
2013-07-07 21:58:00,75.2,69.7,29.91,WSW,247,0.0,0.0,83,0.00,CLR,,0.00,0.0,WeatherDisplay:10.37,2013-07-08 02:58:00,
2013-07-07 22:03:00,75.2,70.0,29.91,WSW,247,0.0,0.0,84,0.00,CLR,,0.00,0.0,WeatherDisplay:10.37,2013-07-08 03:03:00,
2013-07-07 22:08:00,75.1,69.9,29.91,WSW,246,0.0,0.0,84,0.00,CLR,,0.00,0.0,WeatherDisplay:10.37,2013-07-08 03:08:00,
2013-07-07 22:13:00,75.2,70.4,29.91,WSW,246,0.0,0.0,85,0.00,CLR,,0.00,0.0,WeatherDisplay:10.37,2013-07-08 03:13:00,
2013-07-07 22:18:00,75.2,70.4,29.91,WSW,246,0.0,0.0,85,0.00,CLR,,0.00,0.0,WeatherDisplay:10.37,2013-07-08 03:18:00,
2013-07-07 22:23:00,75.3,70.5,29.91,WSW,247,0.0,0.0,85,0.00,CLR,,0.00,0.0,WeatherDisplay:10.37,2013-07-08 03:23:00,
2013-07-07 22:28:00,75.4,70.6,29.91,WSW,247,0.0,0.0,85,0.00,CLR,,0.00,0.0,WeatherDisplay:10.37,2013-07-08 03:28:00,
2013-07-07 22:33:00,75.4,70.6,29.91,WSW,242,0.0,0.0,85,0.00,CLR,,0.00,0.0,WeatherDisplay:10.37,2013-07-08 03:33:00,
2013-07-07 22:38:00,75.5,70.7,29.91,WSW,243,0.0,0.0,85,0.00,CLR,,0.00,0.0,WeatherDisplay:10.37,2013-07-08 03:38:00,
2013-07-07 22:43:00,75.5,71.0,29.91,WSW,242,0.0,0.0,86,0.00,CLR,,0.00,0.0,WeatherDisplay:10.37,2013-07-08 03:43:00,
2013-07-07 22:48:00,75.6,71.1,29.91,WSW,242,0.0,0.0,86,0.00,CLR,,0.00,0.0,WeatherDisplay:10.37,2013-07-08 03:48:00,
2013-07-07 22:53:00,75.6,71.1,29.91,WSW,243,0.0,0.0,86,0.00,CLR,,0.00,0.0,WeatherDisplay:10.37,2013-07-08 03:53:00,
2013-07-07 22:58:00,75.6,71.1,29.91,WSW,243,0.0,0.0,86,0.00,CLR,,0.00,0.0,WeatherDisplay:10.37,2013-07-08 03:58:00,
2013-07-07 23:01:00,75.6,71.1,29.91,ENE,61,0.0,0.1,86,0.00,CLR,,0.00,0.0,WeatherDisplay:10.37,2013-07-08 04:01:00,
2013-07-07 23:02:00,75.6,71.1,29.91,ENE,60,1.1,0.0,86,0.00,CLR,,0.00,0.0,WeatherDisplay:10.37,2013-07-08 04:02:00,
2013-07-07 23:07:00,75.7,71.2,29.91,ENE,60,0.0,0.0,86,0.00,CLR,,0.00,0.0,WeatherDisplay:10.37,2013-07-08 04:07:00,
2013-07-07 23:12:00,75.7,71.2,29.92,NE,49,0.0,0.0,86,0.00,CLR,,0.00,0.0,WeatherDisplay:10.37,2013-07-08 04:12:00,
2013-07-07 23:17:00,75.7,71.2,29.92,NE,49,0.0,0.0,86,0.00,CLR,,0.00,0.0,WeatherDisplay:10.37,2013-07-08 04:17:00,
2013-07-07 23:22:00,75.6,71.1,29.92,NW,318,0.0,0.0,86,0.00,CLR,,0.00,0.0,WeatherDisplay:10.37,2013-07-08 04:22:00,
2013-07-07 23:27:00,75.6,71.1,29.92,SW,233,1.0,0.0,86,0.00,CLR,,0.00,0.0,WeatherDisplay:10.37,2013-07-08 04:27:00,
2013-07-07 23:32:00,75.6,71.1,29.92,West,273,1.1,0.0,86,0.00,CLR,,0.00,0.0,WeatherDisplay:10.37,2013-07-08 04:32:00,
2013-07-07 23:37:00,75.5,71.0,29.92,West,272,0.0,0.0,86,0.00,CLR,,0.00,0.0,WeatherDisplay:10.37,2013-07-08 04:37:00,
2013-07-07 23:42:00,75.5,71.0,29.92,West,272,0.0,0.0,86,0.00,CLR,,0.00,0.0,WeatherDisplay:10.37,2013-07-08 04:42:00,
2013-07-07 23:47:00,75.4,70.9,29.92,West,273,0.0,0.0,86,0.00,CLR,,0.00,0.0,WeatherDisplay:10.37,2013-07-08 04:47:00,
2013-07-07 23:52:00,75.4,70.9,29.92,SW,220,0.0,0.0,86,0.00,CLR,,0.00,0.0,WeatherDisplay:10.37,2013-07-08 04:52:00,
2013-07-07 23:57:00,75.3,71.2,29.92,SW,220,0.0,0.0,87,0.00,CLR,,0.00,0.0,WeatherDisplay:10.37,2013-07-08 04:57:00,